Location: ??????
(30.0081°N, 31.2109°E)
Time: 08:06:34
(UTC+00:00)

DELTA 2 R/B (1) - Pass Details

Date: 03 March 2021
Orbit: 790 x 803 km, 39.6° (Epoch: 15 April)

Event Time Altitude Azimuth Distance (km) Brightness Sun altitude
Rises 16:58:04 0° 237° (WSW) 3,272 7.8 -14.3°
Reaches altitude 10° 17:00:32 10° 237° (WSW) 2,343 6.9 -14.8°
Maximum altitude 17:06:04 82° 151° (SSE) 798 3.5 -16.0°
Enters shadow 17:09:30 24° 65° (ENE) 1,586 4.6 -16.8°
